Location: Radomski Observatory
(40.2854°N, 79.5145°W)
Time: 22:57:51
(UTC-04:00)

Cosmos 1072 Rocket - Visible Passes

Search period start: 29 July 2014 00:00
Search period end: 08 August 2014 00:00
Orbit: 948 x 1010 km, 82.9° (Epoch: 29 July)

Date Brightness Start Highest point End Pass type
(mag) Time Alt. Az. Time Alt. Az. Time Alt. Az.
29 Jul 6.0 01:11:48 10° NNE 01:16:38 24° ENE 01:17:37 23° E visible
29 Jul 4.7 02:56:29 10° NNW 03:02:20 49° W 03:02:20 49° W visible
30 Jul 5.1 01:37:33 10° N 01:43:22 43° ENE 01:43:39 43° E visible
30 Jul 5.6 03:23:34 10° NNW 03:28:22 26° W 03:28:22 26° W visible
31 Jul 6.7 00:21:48 10° NE 00:23:29 11° ENE 00:24:59 10° ENE visible
31 Jul 4.4 02:03:46 10° N 02:09:42 79° NE 02:09:42 79° NE visible
31 Jul 6.3 03:51:41 10° NW 03:54:25 14° W 03:54:25 14° W visible
01 Aug 6.1 00:45:54 10° NNE 00:50:29 22° ENE 00:51:03 21° ENE visible
01 Aug 4.8 02:30:20 10° NNW 02:35:46 53° WNW 02:35:46 53° WNW visible
02 Aug 5.3 01:11:32 10° N 01:17:07 39° ENE 01:17:07 39° ENE visible
02 Aug 5.6 02:57:20 10° NNW 03:01:51 29° WNW 03:01:51 29° WNW visible
03 Aug 4.6 01:37:41 10° N 01:43:13 68° NE 01:43:13 68° NE visible
03 Aug 6.3 03:25:10 10° NW 03:27:56 15° WNW 03:27:56 15° WNW visible
04 Aug 6.2 00:20:00 10° NNE 00:24:20 20° ENE 00:24:36 20° ENE visible
04 Aug 4.8 02:04:12 10° NNW 02:09:19 55° NW 02:09:19 55° NW visible
05 Aug 5.5 00:45:32 10° N 00:50:43 35° ENE 00:50:43 35° ENE visible
05 Aug 5.6 02:31:07 10° NNW 02:35:26 31° WNW 02:35:26 31° WNW visible
06 Aug 4.8 01:11:37 10° N 01:16:51 59° NE 01:16:51 59° NE visible
06 Aug 6.3 02:58:44 10° NW 03:01:34 17° WNW 03:01:34 17° WNW visible
06 Aug 6.3 23:54:09 10° NNE 23:58:11 18° ENE 23:58:16 18° ENE visible
07 Aug 4.9 01:38:04 10° NNW 01:43:00 55° NW 01:43:00 55° NW visible
